Somerville, NJ

6:46 PM EDT on May 24, 2017 (GMT -0400)
Somerset

Weather History for KSMQ - April, 2014

Change the Weather History Date:

Tuesday, April 22, 2014

  Actual Average Record
Temperature  
Mean Temperature 56 °F -  
Max Temperature 73 °F 65 °F 87 °F (1985)
Min Temperature 39 °F 40 °F 25 °F (1981)
Degree Days  
Heating Degree Days 9    
Growing Degree Days 6 (Base 50)    
Moisture  
Dew Point 45 °F    
Average Humidity 69    
Maximum Humidity 89    
Minimum Humidity 37    
Precipitation  
Precipitation 0.00 in - - ()
Sea Level Pressure  
Sea Level Pressure 29.65 in    
Wind  
Wind Speed 2 mph (SSW)    
Max Wind Speed 9 mph    
Max Gust Speed 18 mph    
Visibility 10 miles    
Events      
Averages and records for this station are not official NWS values.
T = Trace of Precipitation, MM = Missing Value Source: NWS Daily Summary

Daily Weather History Graph

Daily Weather History Graph

Search for Another Location

Airport or City:

Trip Planner

Search our weather history database for the weather conditions in past years. The results will help you decide how hot, cold, wet, or windy it might be!

Date:

Astronomy

Apr. 22, 2014 Rise Set
Actual Time 6:09 AM EDT 7:45 PM EDT
Civil Twilight 5:40 AM EDT 8:14 PM EDT
Nautical Twilight 5:06 AM EDT 8:49 PM EDT
Astronomical Twilight 4:29 AM EDT 9:26 PM EDT
Moon 1:58 AM EDT (4/22) 12:41 PM EDT (4/22)
Length of Visible Light 14h 33m
Length of Day
13h 35m
Last Quarter, 46% of the Moon is Illuminated
Apr 22
Last Quarter
Apr 29
New
May 6
First Quarter
May 14
Full
May 21
Last Quarter

Hourly Weather History & Observations

Time (EDT) Temp. Dew Point Humidity Pressure Visibility Wind Dir Wind Speed Gust Speed Precip Events Conditions
12:53 AM 46.0 °F 41.0 °F 83% 29.85 in 10.0 mi Calm Calm - N/A   Clear
1:53 AM 44.1 °F 39.0 °F 82% 29.83 in 10.0 mi Calm Calm - N/A   Clear
2:53 AM 42.1 °F 37.9 °F 85% 29.81 in 10.0 mi Calm Calm - N/A   Clear
3:53 AM 39.9 °F 36.0 °F 86% 29.80 in 10.0 mi Calm Calm - N/A   Clear
4:53 AM 39.9 °F 36.0 °F 86% 29.78 in 10.0 mi Calm Calm - N/A   Clear
5:53 AM 39.0 °F 35.1 °F 86% 29.76 in 10.0 mi Calm Calm - N/A   Clear
6:53 AM 39.9 °F 37.0 °F 89% 29.76 in 10.0 mi Calm Calm - N/A   Clear
7:53 AM 46.9 °F 43.0 °F 86% 29.74 in 10.0 mi Calm Calm - N/A   Clear
8:53 AM 52.0 °F 46.0 °F 80% 29.72 in 10.0 mi South 3.5 mph - N/A   Clear
9:53 AM 57.9 °F 46.9 °F 67% 29.69 in 10.0 mi Variable 4.6 mph - N/A   Clear
10:53 AM 63.0 °F 46.9 °F 56% 29.66 in 10.0 mi South 9.2 mph - N/A   Clear
11:53 AM 66.0 °F 46.9 °F 50% 29.63 in 10.0 mi SSE 8.1 mph - N/A   Clear
12:53 PM 69.1 °F 45.0 °F 42% 29.60 in 10.0 mi South 9.2 mph 18.4 mph N/A   Clear
1:53 PM 72.0 °F 45.0 °F 38% 29.57 in 10.0 mi SSE 9.2 mph - N/A   Clear
2:53 PM 73.0 °F 45.0 °F 37% 29.55 in 10.0 mi WNW 6.9 mph - N/A   Mostly Cloudy
3:53 PM 70.0 °F 46.0 °F 42% 29.55 in 10.0 mi WNW 9.2 mph - 0.00 in   Overcast
4:53 PM 64.0 °F 51.1 °F 63% 29.55 in 10.0 mi Variable 4.6 mph - 0.00 in   Overcast
5:53 PM 64.0 °F 52.0 °F 65% 29.53 in 10.0 mi Variable 5.8 mph - 0.00 in   Overcast
6:53 PM 64.0 °F 52.0 °F 65% 29.53 in 10.0 mi Variable 4.6 mph - 0.00 in   Mostly Cloudy
7:53 PM 63.0 °F 52.0 °F 67% 29.54 in 10.0 mi Variable 3.5 mph - N/A   Mostly Cloudy
8:53 PM 62.1 °F 48.9 °F 62% 29.54 in 10.0 mi SSW 3.5 mph - 0.00 in   Overcast
9:53 PM 60.1 °F 48.0 °F 64% 29.53 in 10.0 mi Calm Calm - N/A   Mostly Cloudy
10:53 PM 53.1 °F 46.9 °F 80% 29.52 in 10.0 mi Calm Calm - N/A   Clear
11:53 PM 50.0 °F 46.0 °F 86% 29.52 in 10.0 mi Calm Calm - N/A   Clear